Weather History for Key West NAF, FL

Change the Weather History Date:

Sunday, February 17, 2013

  Actual Average Record
Temperature  
Mean Temperature 58 °F -  
Max Temperature 64 °F 76 °F 84 °F (1997)
Min Temperature 53 °F 66 °F 52 °F (1958)
Degree Days  
Heating Degree Days 6    
Growing Degree Days 8 (Base 50)    
Moisture  
Dew Point 41 °F    
Average Humidity 52    
Maximum Humidity 65    
Minimum Humidity 46    
Precipitation  
Precipitation 0.00 in - - ()
Sea Level Pressure  
Sea Level Pressure 30.23 in    
Wind  
Wind Speed 18 mph (North)    
Max Wind Speed 23 mph    
Max Gust Speed 33 mph    
Visibility 10 miles    
Events      
Averages and records for this station are not official NWS values.
T = Trace of Precipitation, MM = Missing Value Source: NWS Daily Summary

Daily Weather History Graph

Daily Weather History Graph

Search for Another Location

Airport:

Trip Planner

Search our weather history database for the weather conditions in past years. The results will help you decide how hot, cold, wet, or windy it might be!

Date:

Astronomy

Feb. 17, 2013 Rise Set
Actual Time 6:58 AM EST 6:22 PM EST
Civil Twilight 6:35 AM EST 6:46 PM EST
Nautical Twilight 6:09 AM EST 7:12 PM EST
Astronomical Twilight 5:42 AM EST 7:39 PM EST
Moon 11:40 AM EST (2/17) 12:29 AM EST (2/17)
Length of Visible Light 12h 10m
Length of Day
11h 23m
Waxing Crescent, 49% of the Moon is Illuminated
Feb 17
Waxing Crescent
Feb 17
First Quarter
Feb 25
Full
Mar 4
Last Quarter
Mar 11
New

Hourly Weather History & Observations

Time (EST) Temp. Dew Point Humidity Pressure Visibility Wind Dir Wind Speed Gust Speed Precip Events Conditions
12:53 AM 64.9 °F 48.9 °F 56% 30.11 in 10.0 mi NNW 21.9 mph 29.9 mph N/A   Mostly Cloudy
1:53 AM 64.0 °F 48.0 °F 56% 30.11 in 10.0 mi NNW 21.9 mph 29.9 mph N/A   Overcast
2:53 AM 64.0 °F 46.0 °F 52% 30.10 in 10.0 mi NNW 23.0 mph 33.4 mph N/A   Overcast
3:53 AM 63.0 °F 43.0 °F 48% 30.11 in 10.0 mi NNW 20.7 mph 31.1 mph N/A   Scattered Clouds
4:53 AM 62.1 °F 44.1 °F 52% 30.12 in 10.0 mi NNW 18.4 mph - N/A   Mostly Cloudy
5:53 AM 62.1 °F 42.1 °F 48% 30.14 in 10.0 mi NNW 17.3 mph 27.6 mph N/A   Scattered Clouds
6:03 AM 62.6 °F 42.8 °F 48% 30.14 in 10.0 mi NNW 19.6 mph 24.2 mph N/A   Scattered Clouds
6:53 AM 57.9 °F 46.0 °F 65% 30.17 in 10.0 mi NNE 20.7 mph 32.2 mph N/A   Scattered Clouds
7:53 AM 57.0 °F 44.1 °F 62% 30.21 in 10.0 mi North 21.9 mph 27.6 mph N/A   Overcast
8:53 AM 55.9 °F 41.0 °F 57% 30.25 in 10.0 mi NNE 16.1 mph 27.6 mph N/A   Mostly Cloudy
9:53 AM 55.9 °F 39.0 °F 53% 30.27 in 10.0 mi North 17.3 mph 27.6 mph N/A   Mostly Cloudy
10:53 AM 57.9 °F 39.0 °F 49% 30.30 in 10.0 mi NNE 13.8 mph 24.2 mph N/A   Mostly Cloudy
11:53 AM 59.0 °F 37.9 °F 46% 30.30 in 10.0 mi North 18.4 mph - N/A   Scattered Clouds
12:53 PM 60.1 °F 39.0 °F 46% 30.29 in 10.0 mi North 13.8 mph 21.9 mph N/A   Mostly Cloudy
1:53 PM 59.0 °F 37.9 °F 46% 30.27 in 10.0 mi North 16.1 mph - N/A   Scattered Clouds
2:53 PM 59.0 °F 37.9 °F 46% 30.27 in 10.0 mi North 15.0 mph 24.2 mph N/A   Scattered Clouds
3:53 PM 59.0 °F 37.9 °F 46% 30.26 in 10.0 mi North 13.8 mph 21.9 mph N/A   Partly Cloudy
4:53 PM 57.9 °F 37.0 °F 46% 30.26 in 10.0 mi NNW 16.1 mph - N/A   Partly Cloudy
5:53 PM 55.9 °F 37.0 °F 49% 30.27 in 10.0 mi North 12.7 mph - N/A   Partly Cloudy
6:53 PM 55.0 °F 37.0 °F 51% 30.27 in 10.0 mi North 10.4 mph - N/A   Partly Cloudy
7:53 PM 55.0 °F 36.0 °F 49% 30.27 in 10.0 mi NE 8.1 mph - N/A   Clear
8:53 PM 54.0 °F 37.0 °F 53% 30.29 in 10.0 mi NE 4.6 mph - N/A   Clear
9:53 PM 53.1 °F 37.9 °F 57% 30.29 in 10.0 mi ENE 4.6 mph - N/A   Clear
10:53 PM 55.9 °F 39.0 °F 53% 30.30 in 10.0 mi ENE 9.2 mph - N/A   Clear
11:53 PM 54.0 °F 37.9 °F 55% 30.30 in 10.0 mi NE 6.9 mph - N/A   Clear